EHI
0 0 1 1 0 0 0 0 0 0 0 0 0 0 1 1 1 1 0 1 3 6 6 5 5 5 4 3 2 2 3 3 3 3 2 2 1 0 0 0 0 0 0
0 1 2 1 0 0 0 0 0 0 0 0 0 0 0 1 2 2 1 1 3 5 6 6 6 5 4 3 3 4 4 4 3 2 1 1 0 0 0 0 0 0 0
1 1 2 1 0 0 0 0 0 0 0 0 0 0 0 0 1 2 1 1 3 4 5 7 8 7 5 4 5 6 5 4 3 1 1 1 1 0 0 0 0 0 0
0 1 1 0 0 0 0 0 0 0 0 0 0 0 0 0 0 1 1 2 3 3 4 7 9 9 6 6 6 6 6 4 3 2 3 2 1 0 0 0 0 0 0
0 0 0 0 0 0 0 0 0 0 0 0 0 0 0 0 0 1 1 2 3 3 4 5 7 7 4 5 6 6 5 5 4 5 4 2 1 1 1 0 0 0 0
0 1 1 0 0 0 0 0 0 0 0 0 0 0 0 1 1 2 2 3 3 3 3 3 3 2 1 2 5 6 5 5 6 6 4 3 2 2 2 1 1 0 0
1 1 2 1 1 0 0 0 0 0 0 0 0 0 1 2 2 2 2 2 2 1 1 1 1 1 0 1 3 4 5 6 6 5 4 4 4 4 4 3 3 2 2
0 1 2 3 2 1 0 0 0 0 0 0 0 1 2 3 3 1 1 1 1 0 0 1 2 1 0 0 1 2 4 6 6 6 6 6 6 6 6 5 5 5 5
0 1 2 3 2 1 0 0 0 0 0 1 1 2 2 3 2 1 0 0 0 0 1 2 3 1 0 0 0 1 3 4 5 6 6 7 8 7 7 6 5 5 6
0 0 1 2 1 0 0 0 0 1 1 2 2 1 1 2 2 1 0 0 0 0 0 1 2 1 0 0 0 1 1 2 3 4 4 5 6 7 7 6 5 5 6
0 0 1 1 0 0 0 0 1 2 2 2 2 1 1 1 1 0 0 0 0 0 0 0 1 1 0 0 0 0 0 0 1 2 2 3 4 6 7 6 5 6 6
1 1 1 1 0 0 0 1 2 2 2 1 2 2 2 1 1 0 0 0 0 0 0 0 0 0 0 0 0 0 0 0 0 1 1 1 2 4 5 5 5 5 6
2 2 1 1 0 0 1 2 2 1 1 0 1 1 2 3 2 1 1 0 0 0 0 0 0 0 0 0 0 0 0 0 0 0 0 0 1 2 3 3 3 4 6
2 1 0 0 0 1 2 2 1 0 0 0 0 1 2 3 3 3 2 1 1 0 0 0 0 0 0 0 0 0 0 0 0 0 0 0 0 1 1 1 2 3 4
2 1 0 0 0 1 2 1 0 0 0 0 0 1 3 3 3 3 3 3 2 1 0 0 0 0 0 0 0 0 0 0 0 0 0 0 0 0 0 0 1 2 2
2 1 0 1 1 1 1 0 0 0 0 0 1 2 3 3 3 3 3 3 3 2 1 0 0 0 0 0 1 1 1 1 0 0 0 0 0 0 0 0 0 0 0
3 2 1 2 2 1 0 0 0 0 0 0 1 2 3 3 4 4 3 3 3 3 2 1 1 0 0 1 2 2 2 1 0 0 0 0 0 0 0 0 0 0 0
2 1 1 3 2 1 0 0 1 1 1 1 1 3 3 4 5 5 4 4 3 3 4 3 2 1 2 2 3 3 3 1 0 0 0 0 0 0 0 0 0 0 0
3 3 3 4 3 1 0 1 2 2 2 2 3 3 4 4 4 5 5 5 4 4 5 5 4 4 4 4 4 4 3 1 0 0 0 0 0 0 0 0 0 0 0
7 7 6 5 4 2 1 2 3 3 3 3 3 3 4 4 3 4 4 5 5 5 5 6 6 6 6 6 6 6 4 2 1 1 1 0 0 0 0 0 0 0 0
8 8 7 6 4 3 4 4 4 4 3 3 1 1 1 1 1 2 3 4 5 5 5 5 5 5 5 7 7 6 5 4 3 2 2 1 0 0 0 0 0 0 0
7 7 6 5 3 3 4 4 3 3 3 3 1 1 0 0 0 1 1 2 3 4 4 4 4 4 5 6 6 5 4 4 3 3 3 2 1 0 0 0 0 0 0
6 5 4 4 3 3 3 3 2 2 3 3 3 2 1 0 0 0 0 1 2 2 3 3 3 3 4 6 6 5 3 2 2 3 3 3 2 1 1 1 0 0 0
4 4 3 3 3 3 3 2 1 1 2 3 3 3 3 2 0 0 0 1 2 2 2 3 3 3 4 5 4 3 1 0 1 2 4 4 4 3 3 2 1 0 0
3 3 3 3 3 3 2 1 1 1 2 3 3 4 4 3 1 0 0 1 2 3 3 2 3 2 2 2 1 1 1 1 1 2 4 5 6 6 5 3 1 0 0
3 3 3 3 3 3 2 1 0 1 3 3 3 4 4 4 2 1 1 2 2 3 3 3 2 1 0 0 0 1 2 2 2 2 4 6 6 6 5 2 0 0 0
Wind_Speed
2 2 2 2 2 1 1 1 1 1 1 1 1 1 1 2 2 2 1 4 5 5 5 5 6 6 6 7 7 7 8 9 8 7 8 8 8 9 10 10 10 9 9
1 2 2 2 2 1 1 1 1 1 1 1 1 1 1 1 1 1 1 2 4 4 5 5 5 5 5 6 6 6 7 7 6 6 7 8 7 8 9 9 9 9 9
2 2 1 1 1 1 2 1 2 2 2 2 1 1 1 0 1 1 1 1 1 3 3 4 4 4 5 5 5 5 5 5 6 6 6 6 6 7 8 8 8 8 9
2 2 1 1 1 1 1 1 1 2 2 2 1 1 1 0 0 1 1 1 1 1 2 3 3 4 4 4 4 5 5 6 6 6 7 7 7 7 8 8 8 8 8
2 2 1 1 1 1 2 1 2 1 1 2 1 1 1 1 1 0 0 1 1 1 1 2 3 4 4 4 4 5 5 5 5 6 7 7 8 8 8 8 8 8 8
2 2 1 1 2 2 2 2 2 2 1 1 1 2 1 1 1 1 1 1 1 1 1 2 2 2 3 4 4 4 4 5 5 6 7 7 8 8 9 9 9 9 8
1 1 1 2 2 2 1 1 1 2 2 1 1 2 2 2 1 1 1 1 1 1 1 2 1 2 2 3 3 3 4 5 5 6 6 6 7 8 9 9 9 9 9
1 1 2 1 2 2 2 2 1 1 1 1 1 1 2 3 2 1 1 0 1 1 1 1 1 2 1 1 2 3 4 4 5 5 5 5 4 6 8 8 9 9 8
2 2 2 2 1 1 1 1 1 2 0 1 1 1 1 1 2 2 1 1 1 1 1 1 1 1 1 1 2 3 4 5 6 6 5 4 4 5 7 8 8 9 9
2 2 1 2 1 1 1 0 1 1 1 0 0 0 1 1 0 2 2 2 2 2 2 1 1 1 1 1 2 3 4 4 3 5 5 5 5 5 7 8 9 9 9
2 2 2 2 1 1 1 1 1 1 1 1 0 0 0 1 1 1 2 3 3 2 1 1 1 1 1 1 2 3 4 3 2 3 4 4 5 5 6 7 8 9 9
2 2 2 2 1 1 1 1 1 1 0 1 1 1 1 1 1 1 1 2 2 2 2 1 1 1 1 2 2 3 3 3 2 2 3 4 5 5 6 7 8 8 9
1 1 2 1 1 1 1 1 1 0 0 0 0 0 0 0 1 1 1 1 2 2 2 1 1 1 2 2 2 3 3 3 2 3 3 4 4 5 5 7 8 8 8
1 0 0 1 1 1 1 0 1 0 1 0 1 1 0 0 0 1 1 1 1 2 2 3 1 1 2 2 3 3 3 3 3 3 3 4 4 5 5 6 7 7 7
1 0 0 0 1 1 0 1 1 1 1 1 1 1 0 0 0 0 1 1 1 1 2 2 2 2 2 2 2 2 2 3 3 3 3 3 3 4 5 6 6 6 6
1 0 0 0 1 1 0 1 0 1 1 1 0 1 0 1 0 0 1 1 1 2 2 2 2 3 3 3 3 3 3 4 3 3 2 3 3 3 4 4 5 6 6
1 1 1 0 0 0 0 0 0 0 1 1 1 1 1 1 1 0 0 1 1 1 2 2 1 2 2 3 3 3 3 2 2 2 3 3 3 3 3 3 3 4 5
1 1 1 0 0 1 0 0 1 0 0 1 1 1 1 1 1 1 0 1 1 2 2 3 2 2 2 3 3 3 3 2 2 3 3 3 3 3 3 3 3 3 3
1 1 1 1 1 1 0 1 1 1 1 1 1 1 2 1 1 1 1 1 1 1 2 2 3 1 2 2 3 3 3 2 3 3 3 3 3 3 3 3 4 4 3
1 1 1 1 1 1 1 1 1 1 1 1 1 2 2 1 2 2 1 2 1 1 1 2 2 2 2 2 2 2 3 3 3 3 3 3 3 3 4 3 4 4 4
1 1 1 1 1 1 1 1 1 1 1 1 2 2 2 2 2 1 1 1 1 1 1 1 2 2 2 2 2 2 3 3 3 2 2 3 2 2 3 3 4 4 5
1 1 1 1 1 1 0 1 1 1 1 1 2 3 2 3 3 3 2 2 2 2 2 2 2 3 4 3 3 2 2 2 3 1 2 3 2 3 3 2 3 4 5
0 0 1 1 1 2 1 1 1 1 1 2 2 2 2 3 3 2 3 3 2 2 3 3 3 4 4 4 3 3 3 3 3 2 1 3 2 3 3 2 3 3 4
0 0 1 1 1 2 1 1 1 1 1 2 2 2 2 3 3 2 2 2 3 3 3 3 4 5 5 4 4 4 4 4 3 2 2 3 2 3 3 3 3 4 3
0 1 1 1 1 2 2 1 1 1 1 2 2 2 2 3 3 1 1 2 4 4 4 4 4 5 6 5 3 2 2 2 3 2 2 2 2 2 3 3 3 3 2
1 1 1 1 2 2 2 1 1 0 1 2 2 3 3 3 3 2 1 2 4 5 4 4 4 4 4 4 3 3 3 3 2 3 2 2 2 1 2 1 2 1 1
Wind_Direction
55 47 41 39 38 44 54 57 56 60 74 80 105 119 131 151 168 180 195 196 202 213 220 222 220 217 214 214 218 221 224 223 221 221 223 224 225 215 210 209 210 209 206
70 60 49 37 30 32 46 65 75 69 68 71 69 77 115 144 174 181 204 221 218 226 237 234 228 233 230 223 221 224 227 231 229 229 229 228 228 221 213 212 211 208 205
75 73 64 43 25 33 49 56 55 60 71 67 52 46 61 109 175 193 205 229 241 230 233 240 237 243 243 236 228 226 226 227 229 230 231 226 220 220 214 210 209 205 201
80 77 69 44 32 44 56 62 55 57 51 46 35 11 18 357 221 201 191 200 217 228 237 244 246 250 248 240 239 242 240 237 232 230 231 225 224 221 215 211 210 206 200
76 88 73 52 48 58 51 51 57 66 51 31 31 22 10 351 331 264 189 200 214 229 245 254 255 254 253 252 251 249 252 253 241 232 234 232 230 222 215 212 209 205 201
78 96 92 65 67 68 51 46 50 49 51 14 20 21 7 356 1 341 286 261 244 249 250 262 270 268 262 266 262 252 257 261 250 240 240 238 237 225 214 209 206 202 201
53 78 75 65 69 76 73 69 61 55 34 26 43 8 4 21 20 356 342 335 299 274 249 243 247 252 267 274 271 258 256 259 257 246 241 238 234 221 209 205 202 200 201
40 72 77 76 73 77 62 64 75 62 26 38 74 47 1 352 357 14 7 334 310 304 288 257 232 227 244 264 275 269 262 254 252 250 240 234 229 215 204 204 203 202 202
43 54 79 92 85 97 96 72 93 104 68 17 60 115 117 285 317 333 347 354 331 317 301 287 260 253 250 260 274 277 270 263 246 237 235 229 228 223 210 208 210 209 208
38 46 61 79 80 90 108 131 108 112 127 57 20 78 164 174 211 320 328 336 329 317 307 309 298 267 272 269 273 292 299 296 254 232 234 240 236 231 216 214 216 216 214
29 35 50 61 59 53 49 57 74 91 133 157 171 178 133 94 142 187 300 323 332 322 315 304 308 303 290 281 280 297 303 315 273 239 242 247 240 232 217 218 221 222 220
19 26 50 47 36 30 28 52 72 102 120 140 140 149 157 154 195 187 238 291 308 313 317 303 303 305 300 299 291 303 300 309 303 265 245 241 242 238 226 225 229 228 225
1 359 29 34 12 6 27 46 68 43 50 79 106 186 177 204 171 173 188 264 294 307 317 316 314 331 318 316 303 304 293 297 298 280 259 250 242 239 244 242 238 237 235
238 283 25 6 352 9 39 54 62 21 46 20 360 25 51 339 163 169 178 180 295 311 307 302 317 324 317 308 312 306 301 302 293 282 265 255 249 240 239 246 242 240 239
229 235 350 345 340 355 23 71 56 4 47 17 348 360 15 337 32 213 190 174 186 275 298 305 311 321 318 304 322 300 293 308 301 288 273 265 261 256 248 245 243 236 236
241 262 306 305 344 349 10 85 51 355 36 351 351 27 338 299 282 218 190 184 184 200 259 291 279 308 319 326 334 315 303 315 304 304 287 271 261 261 261 253 248 240 236
205 235 255 270 295 303 300 113 256 3 49 360 354 16 331 332 328 310 209 181 189 191 245 284 278 306 304 317 331 322 312 303 306 304 293 283 268 257 255 259 250 249 234
193 203 214 191 257 276 266 188 241 269 198 282 306 344 318 336 343 313 272 242 228 211 223 272 294 303 297 308 315 312 321 317 296 313 298 288 276 259 257 249 241 244 246
174 180 176 182 224 236 230 227 215 228 227 244 262 264 283 298 313 309 293 274 262 236 216 247 284 293 291 320 326 318 321 317 311 315 298 294 295 283 263 250 239 233 232
179 200 208 209 211 212 210 211 192 216 248 280 278 263 261 253 260 271 279 273 268 264 233 250 274 294 293 308 313 314 317 320 311 313 320 313 306 293 281 262 242 233 227
202 206 200 223 232 214 213 194 201 221 249 293 299 288 276 268 246 247 263 259 239 244 254 261 279 293 295 304 298 285 291 306 298 297 311 309 307 296 284 272 251 238 232
190 184 209 234 247 258 249 168 176 222 252 272 292 302 299 301 295 287 278 261 226 219 238 243 259 270 278 273 279 277 283 303 295 285 284 292 290 285 281 267 271 256 241
97 35 265 252 263 267 277 258 228 215 240 261 277 298 307 315 310 304 313 308 291 264 229 226 252 262 267 260 257 267 260 258 260 275 264 276 269 274 276 281 281 267 253
128 262 295 278 278 294 304 287 290 255 267 279 278 274 280 297 300 296 303 315 307 293 266 242 244 259 267 264 241 248 258 269 272 263 231 262 277 276 288 280 277 262 257
172 284 294 286 281 292 307 311 28 305 300 296 293 288 277 285 304 305 294 301 307 306 297 285 275 280 284 281 258 242 251 260 280 272 224 247 272 287 287 281 287 283 280
221 263 290 285 274 279 294 279 183 231 300 303 306 302 295 290 305 303 258 274 289 294 308 316 315 315 307 302 276 225 226 239 265 270 229 226 253 264 283 288 314 321 293